Hourly Weather Acre River

Today, 23 April, Friday

Time Temperature Precipitation Wind Pressure Humidity
00:00 +25°C° 0 mm 1 mps 742 mmHg 95%
01:00 +24°C° 0 mm 1 mps 741 mmHg 96%
02:00 +24°C° 0.1 mm 1 mps 741 mmHg 96%
03:00 +24°C° 0.1 mm 1 mps 741 mmHg 97%
04:00 +24°C° 0.1 mm 1 mps 741 mmHg 98%
05:00 +24°C° 0.3 mm 1 mps 742 mmHg 97%
06:00 +25°C° 0.3 mm 1 mps 742 mmHg 96%
07:00 +23°C° 0.3 mm 0 mps 743 mmHg 95%
08:00 +27°C° 0.2 mm 1 mps 743 mmHg 87%
09:00 +29°C° 0.2 mm 1 mps 743 mmHg 79%
10:00 +31°C° 0.2 mm 1 mps 743 mmHg 71%
11:00 +32°C° 0.5 mm 1 mps 742 mmHg 66%
12:00 +31°C° 0.5 mm 0 mps 741 mmHg 61%
13:00 +32°C° 0.5 mm 0 mps 740 mmHg 55%
14:00 +30°C° 0.4 mm 0 mps 740 mmHg 66%
15:00 +30°C° 0.4 mm 1 mps 740 mmHg 76%
16:00 +28°C° 0.4 mm 1 mps 739 mmHg 87%
17:00 +27°C° 0 mm 1 mps 740 mmHg 89%
18:00 +27°C° 0 mm 1 mps 740 mmHg 91%
19:00 +26°C° 0 mm 1 mps 741 mmHg 93%
20:00 +26°C° 0 mm 1 mps 741 mmHg 94%
21:00 +25°C° 0 mm 1 mps 741 mmHg 95%
22:00 +25°C° 0 mm 1 mps 742 mmHg 96%
23:00 +24°C° 0 mm 1 mps 742 mmHg 96%

Tomorrow, 24 April, Saturday

Time Temperature Precipitation Wind Pressure Humidity
00:00 +24°C° 0 mm 1 mps 741 mmHg 97%
01:00 +24°C° 0 mm 1 mps 741 mmHg 97%
02:00 +24°C° 0 mm 1 mps 741 mmHg 98%
03:00 +24°C° 0 mm 1 mps 741 mmHg 98%
04:00 +24°C° 0 mm 1 mps 741 mmHg 98%
05:00 +24°C° 0 mm 1 mps 742 mmHg 95%
06:00 +25°C° 0 mm 1 mps 742 mmHg 92%
07:00 +26°C° 0 mm 1 mps 743 mmHg 89%
08:00 +28°C° 0 mm 1 mps 743 mmHg 79%
09:00 +30°C° 0 mm 1 mps 743 mmHg 68%
10:00 +32°C° 0 mm 2 mps 743 mmHg 58%
11:00 +32°C° 0.3 mm 1 mps 742 mmHg 59%
12:00 +33°C° 0.3 mm 1 mps 741 mmHg 60%
13:00 +33°C° 0.3 mm 1 mps 740 mmHg 61%
14:00 +32°C° 0.2 mm 1 mps 740 mmHg 64%
15:00 +32°C° 0.2 mm 1 mps 739 mmHg 66%
16:00 +31°C° 0.2 mm 1 mps 739 mmHg 69%
17:00 +30°C° 0 mm 1 mps 739 mmHg 76%
18:00 +26°C° 0 mm 0 mps 740 mmHg 82%
19:00 +24°C° 0 mm 0 mps 740 mmHg 88%
20:00 +24°C° 0 mm 0 mps 741 mmHg 89%
21:00 +26°C° 0 mm 1 mps 741 mmHg 91%
22:00 +25°C° 0 mm 1 mps 741 mmHg 92%
23:00 +25°C° 0 mm 1 mps 741 mmHg 93%

Day after tomorrow, 25 April, Sunday

Time Temperature Precipitation Wind Pressure Humidity
00:00 +25°C° 0 mm 1 mps 741 mmHg 95%
01:00 +25°C° 0 mm 1 mps 740 mmHg 96%
02:00 +24°C° 0 mm 1 mps 740 mmHg 96%
03:00 +22°C° 0 mm 0 mps 741 mmHg 97%
04:00 +22°C° 0 mm 0 mps 741 mmHg 97%
05:00 +23°C° 0 mm 0 mps 741 mmHg 94%
06:00 +24°C° 0 mm 0 mps 742 mmHg 90%
07:00 +25°C° 0 mm 0 mps 743 mmHg 87%
08:00 +28°C° 0.1 mm 1 mps 743 mmHg 79%
09:00 +30°C° 0.1 mm 1 mps 743 mmHg 71%
10:00 +32°C° 0.1 mm 1 mps 743 mmHg 63%
11:00 +32°C° 1.1 mm 1 mps 742 mmHg 68%
12:00 +31°C° 1.1 mm 1 mps 741 mmHg 73%
13:00 +31°C° 1.1 mm 1 mps 740 mmHg 78%
14:00 +31°C° 0.9 mm 1 mps 740 mmHg 79%
15:00 +30°C° 0.9 mm 1 mps 740 mmHg 80%
16:00 +30°C° 0.9 mm 1 mps 739 mmHg 81%
17:00 +28°C° 2.7 mm 1 mps 740 mmHg 86%
18:00 +26°C° 2.7 mm 2 mps 741 mmHg 92%
19:00 +25°C° 2.7 mm 2 mps 742 mmHg 98%
20:00 +24°C° 1.5 mm 2 mps 742 mmHg 98%
21:00 +24°C° 1.5 mm 2 mps 743 mmHg 98%
22:00 +24°C° 1.5 mm 2 mps 743 mmHg 99%
23:00 +24°C° 2 mm 2 mps 743 mmHg 99%

26 April, Monday

Time Temperature Precipitation Wind Pressure Humidity
00:00 +24°C° 2 mm 2 mps 742 mmHg 99%
01:00 +23°C° 2 mm 2 mps 742 mmHg 99%
02:00 +23°C° 0.4 mm 2 mps 742 mmHg 98%
03:00 +23°C° 0.4 mm 2 mps 742 mmHg 98%
04:00 +23°C° 0.4 mm 2 mps 742 mmHg 98%
05:00 +23°C° 0.3 mm 2 mps 743 mmHg 98%
06:00 +23°C° 0.3 mm 2 mps 743 mmHg 98%
07:00 +23°C° 0.3 mm 2 mps 744 mmHg 98%
08:00 +23°C° 0.2 mm 2 mps 744 mmHg 97%
09:00 +23°C° 0.2 mm 2 mps 744 mmHg 96%
10:00 +24°C° 0.2 mm 2 mps 745 mmHg 95%
11:00 +24°C° 0.2 mm 1 mps 744 mmHg 94%
12:00 +25°C° 0.2 mm 1 mps 743 mmHg 92%
13:00 +25°C° 0.2 mm 1 mps 743 mmHg 90%
14:00 +25°C° 0.1 mm 1 mps 742 mmHg 89%
15:00 +25°C° 0.1 mm 1 mps 742 mmHg 88%
16:00 +25°C° 0.1 mm 1 mps 742 mmHg 86%
17:00 +25°C° 0 mm 1 mps 742 mmHg 88%
18:00 +24°C° 0 mm 1 mps 742 mmHg 90%
19:00 +24°C° 0 mm 1 mps 743 mmHg 92%
20:00 +24°C° 0 mm 1 mps 743 mmHg 90%
21:00 +24°C° 0 mm 1 mps 743 mmHg 89%
22:00 +24°C° 0 mm 1 mps 744 mmHg 88%
23:00 +24°C° 0 mm 1 mps 743 mmHg 87%

27 April, Tuesday

Time Temperature Precipitation Wind Pressure Humidity
00:00 +24°C° 0 mm 1 mps 743 mmHg 87%
01:00 +24°C° 0 mm 1 mps 743 mmHg 87%
02:00 +23°C° 0 mm 1 mps 743 mmHg 87%
03:00 +23°C° 0 mm 1 mps 743 mmHg 88%
04:00 +23°C° 0 mm 1 mps 743 mmHg 88%
05:00 +23°C° 0 mm 1 mps 743 mmHg 88%
06:00 +24°C° 0 mm 1 mps 744 mmHg 88%
07:00 +24°C° 0 mm 1 mps 744 mmHg 87%
08:00 +24°C° 0 mm 1 mps 744 mmHg 83%
09:00 +25°C° 0 mm 1 mps 744 mmHg 78%
10:00 +26°C° 0 mm 2 mps 745 mmHg 73%
11:00 +27°C° 0 mm 2 mps 744 mmHg 70%
12:00 +28°C° 0 mm 2 mps 743 mmHg 67%
13:00 +29°C° 0 mm 1 mps 742 mmHg 63%
14:00 +29°C° 0 mm 1 mps 742 mmHg 66%
15:00 +29°C° 0 mm 1 mps 741 mmHg 69%
16:00 +29°C° 0 mm 1 mps 740 mmHg 71%
17:00 +27°C° 0.1 mm 1 mps 741 mmHg 77%
18:00 +26°C° 0.1 mm 1 mps 741 mmHg 84%
19:00 +24°C° 0.1 mm 1 mps 742 mmHg 90%
20:00 +24°C° 0 mm 1 mps 742 mmHg 91%
21:00 +24°C° 0 mm 1 mps 743 mmHg 91%
22:00 +24°C° 0 mm 1 mps 743 mmHg 92%
23:00 +24°C° 0 mm 1 mps 743 mmHg 92%

28 April, Wednesday

Time Temperature Precipitation Wind Pressure Humidity
00:00 +23°C° 0 mm 1 mps 743 mmHg 92%
01:00 +23°C° 0 mm 1 mps 743 mmHg 93%
02:00 +23°C° 0 mm 1 mps 743 mmHg 93%
03:00 +23°C° 0 mm 1 mps 743 mmHg 93%
04:00 +22°C° 0 mm 1 mps 743 mmHg 94%
05:00 +23°C° 0 mm 1 mps 743 mmHg 90%
06:00 +23°C° 0 mm 1 mps 744 mmHg 87%
07:00 +24°C° 0 mm 1 mps 744 mmHg 83%
08:00 +26°C° 0 mm 2 mps 744 mmHg 75%
09:00 +27°C° 0 mm 2 mps 745 mmHg 67%
10:00 +29°C° 0 mm 2 mps 745 mmHg 59%
11:00 +30°C° 0 mm 2 mps 744 mmHg 58%
12:00 +30°C° 0 mm 2 mps 743 mmHg 57%
13:00 +31°C° 0 mm 2 mps 742 mmHg 55%
14:00 +30°C° 0 mm 2 mps 742 mmHg 59%
15:00 +30°C° 0 mm 1 mps 741 mmHg 64%
16:00 +29°C° 0 mm 1 mps 741 mmHg 68%
17:00 +28°C° 0 mm 1 mps 741 mmHg 72%
18:00 +26°C° 0 mm 1 mps 742 mmHg 77%
19:00 +25°C° 0 mm 1 mps 742 mmHg 81%
20:00 +25°C° 0 mm 1 mps 742 mmHg 81%
21:00 +25°C° 0 mm 1 mps 743 mmHg 80%
22:00 +25°C° 0 mm 1 mps 743 mmHg 79%
23:00 +25°C° 0 mm 1 mps 743 mmHg 79%
Show more